#timestamp,LO_Frequency,Hit 
1503230415.4,286046993.3,N
1503230435.2,286046993.8,N
1503230455.1,286046997.9,N
1503230456.0,286046997.9,N
1503230475.8,286046993.6,N
1503230495.6,286046993.6,N
1503230515.5,286046993.7,N
1503230535.3,286046996.2,N
1503230555.1,286046996.3,N
1503230575.8,286046997.9,N
1503230595.7,286046996.0,N
1503230615.5,286046994.4,P
1503230635.3,286046996.8,P
1503230655.2,286046998.8,N
1503230675.0,286046999.6,N
1503230675.9,286046999.6,N
1503230695.7,286046997.3,N
1503230715.6,286046996.1,N
1503230735.4,286046996.7,N
1503230755.2,286046997.5,N
1503230775.3,286046996.5,N
1503230795.1,286047000.7,N
1503230815.9,286046999.9,N
1503230835.7,286047002.3,N
1503230855.5,286047001.9,N
1503230875.4,286047003.9,N
1503230895.2,286047003.9,N
1503230915.0,286047005.8,N
1503230915.9,286047005.8,N
1503230935.8,286047005.6,N
1503230955.6,286047007.5,N
1503230975.4,286047003.8,N
1503230995.3,286047004.9,N
1503231015.6,286047005.3,N
1503231035.4,286047006.0,N
1503231055.2,286047002.9,N
1503231075.1,286047003.3,N
1503231076.0,286047003.3,N
1503231095.8,286047003.8,N
1503231115.6,286047005.3,N
1503231135.5,286047005.1,N
1503231155.3,286047007.1,N
1503231175.1,286047003.7,N
1503231195.9,286047005.7,N
1503231215.7,286047005.6,N
1503231235.5,286047003.1,N
1503231255.4,286047005.9,N
1503231275.2,286047005.8,N
1503231295.0,286047005.2,N
1503231295.9,286047005.2,N
1503231315.8,286047004.8,N
1503231335.6,286047005.5,P
1503231355.4,286047001.7,P
1503231375.3,286047004.4,N
1503231395.1,286047002.5,N
1503231396.0,286047002.5,N
1503231415.8,286047003.6,N
1503231435.7,286047003.4,N
1503231455.5,286047005.6,P
1503231475.3,286047000.5,N
1503231495.2,286047000.4,N
1503231515.9,286046998.8,N
1503231535.7,286046998.1,N
1503231555.6,286046999.6,N
1503231575.4,286046997.8,N
1503231595.2,286046998.9,N
1503231615.0,286046999.4,N
1503231615.9,286046999.4,N
1503231635.8,286046996.6,N
1503231655.6,286046998.3,N
1503231675.4,286046998.7,N
1503231695.3,286046999.0,N
1503231715.1,286046999.1,N
1503231735.8,286046997.2,N
1503231755.7,286046998.0,N
1503231775.5,286046994.9,N
1503231795.3,286046995.0,N
1503231815.2,286046995.1,N
1503231835.9,286046994.0,N
1503231855.7,286046992.4,N
1503231875.5,286046995.8,N
1503231895.4,286046991.7,N
1503231915.2,286046992.1,N
1503231935.0,286046994.7,N
1503231935.9,286046994.7,N
1503231955.8,286046994.8,N
1503231975.6,286046993.0,N
1503231995.4,286046990.6,N
1503232015.3,286046990.4,P
1503232035.1,286046996.1,N
1503232055.8,286046996.1,N
1503232075.7,286046993.5,N
1503232095.5,286046993.5,N
1503232115.3,286046994.5,N
1503232135.2,286046996.0,N
1503232155.9,286046993.1,P
1503232175.7,286046994.9,P
1503232195.6,286046995.9,P
1503232215.4,286046994.5,P
1503232235.2,286046998.1,P
1503232255.1,286047002.3,N
1503232256.0,286047002.3,N
1503232275.8,286047002.0,N
1503232295.6,286047001.8,N
1503232315.5,286047004.0,N
1503232335.3,286047003.4,N
1503232355.1,286047006.1,N
1503232375.9,286047009.0,N
1503232395.7,286047005.8,N
1503232415.5,286047008.5,N
1503232435.4,286047007.7,N
1503232455.2,286047008.5,N
1503232475.0,286047006.3,N
1503232475.9,286047006.3,N
1503232495.8,286047011.9,N
1503232515.6,286047007.8,N
1503232535.4,286047013.5,N
1503232555.2,286047008.1,N
1503232575.1,286047007.8,N
1503232576.0,286047007.8,N
1503232595.8,286047008.2,N
1503232615.6,286047008.5,N
1503232635.5,286047011.8,N
1503232655.3,286047008.2,N
1503232675.1,286047007.8,N
1503232695.9,286047007.8,N
1503232715.7,286047010.1,N
1503232735.5,286047010.5,N
1503232755.4,286047010.6,N
1503232775.2,286047011.9,P
1503232795.0,286047003.6,N
1503232795.9,286047003.6,N
1503232815.8,286047001.6,N
1503232835.6,286047001.6,N
1503232855.4,286047002.9,N
1503232875.3,286047002.0,N
1503232895.1,286047001.4,N
1503232896.0,286047001.4,N
1503232915.8,286047003.1,N
1503232935.7,286047005.4,N
1503232955.5,286047005.2,N
1503232975.3,286047003.0,N
1503232995.2,286047008.8,P
1503233015.9,286046999.9,N
1503233035.7,286047000.5,N
1503233055.6,286047000.1,N
1503233075.4,286047000.5,N
1503233095.2,286047000.3,N
1503233115.0,286047000.2,N
1503233116.0,286047000.2,N
1503233135.8,286047002.5,N
1503233155.6,286047003.2,N
1503233175.4,286047001.3,N
1503233195.3,286047000.0,N
1503233215.1,286047001.2,N
1503233235.8,286047002.4,N
1503233255.7,286047000.3,N
1503233275.5,286046999.9,N
1503233295.3,286047000.7,N
1503233315.2,286047000.2,N
1503233335.9,286047000.6,N
1503233355.7,286047001.2,N
1503233375.6,286047001.7,N
1503233395.4,286047000.5,N
1503233415.2,286047002.8,N
1503233435.0,286047002.2,N
1503233436.0,286047002.2,N
1503233455.8,286047001.7,N
1503233475.6,286047003.0,N
1503233495.4,286047004.4,N
1503233515.3,286046998.5,N
1503233535.1,286047001.2,N
1503233555.8,286046999.3,N
1503233575.7,286046998.4,N
1503233595.5,286046999.4,N
1503233615.3,286046995.6,P
1503233635.2,286046997.4,N
1503233655.0,286046999.7,N
1503233655.9,286046999.7,N
1503233675.7,286046998.4,N
1503233695.6,286046997.1,N
1503233715.4,286046997.2,N
1503233735.2,286046997.4,N
1503233755.1,286046997.4,N
1503233756.0,286046997.4,N
1503233775.8,286046997.4,N
1503233795.6,286046997.9,N
1503233815.5,286046995.3,P
1503233835.3,286047001.0,N
1503233855.1,286047002.0,N
1503233875.9,286047006.6,N
1503233895.7,286047008.2,N
1503233915.5,286047008.7,N
1503233935.4,286047008.5,N
1503233955.2,286047007.6,N
1503233975.0,286047005.6,N
1503233975.9,286047005.6,N
1503233995.8,286047005.7,N
